Résultats de la compétition "Bonneuil-Matours (86)" du 04-04-2009 organisée par le club 8607
     
  Télécharger le fichier CSV.  
     
     

 Circuit "D"

Licence Nom Prénom Temps CN
précédent
Score sur
la course
Différence
11061SANDEVOIRLuc0:30:1045765189+613
15712MARTYLoic0:30:4347305096+366
922PREVOSTPascale0:31:0954695025-444
19411DUBOISXavier0:32:4141254789+664
9115RAYMONDAUDLea0:34:4547734505-268
655QUEYROIHenri0:34:5544834483+0
17067MANIEREMarie0:34:5846284477-151
4751ROIRANDLine0:35:1148764449-427
7045LOTERIELaurine0:36:2338464302+456
7409LE ROUXAnne-Francoise0:38:0441994112-87
16070RICHINMarion0:38:1934304085+655
2030BARBIERYves0:39:2442023973-229
11309BOULESTREAUZelie0:39:4439373940+3
2401DEVILLENelly0:40:1245613894-667
15582CIRAUDOAndrea0:40:2234593878+419
8868BRAMASRenee0:40:5435293827+298
19276PETER-JANLucile0:41:2227043784+1080
633DUBROCAMonique0:44:4945153493-1022
1052DOMENICIJ-Claude0:45:2333243449+125
6918CORNUPierre0:45:2522993447+1148
395BLASCONicole0:45:3237923438-354
7520BOUCHESylvie0:46:1332993387+88
396BLASCOSerge0:46:2848493369-1480
6886FRANTZFrancoise0:46:5734323334-98
20246MONNERIECharlotte0:46:5938653332-533
19486BISSIERECamille0:49:0023903195+805
20273LOPEZGaëtan0:49:23N/A3170N/A
16976RICKARDMichael0:50:2828273102+275
1693BAUDRYJ-Claude0:50:3632843094-190
19238CAMASMandye0:50:5928903070+180
9904AGUILLEVeronique0:50:5929663070+104
8138LEGUENJoseph0:51:2836273041-586
2927CALANDOTMichelle0:51:5828203012+192
1000LEFOUESTJoseph0:53:3638092920-889
2070GOUYERTherese0:53:5726092901+292
10758BESTELSandra0:54:0723172892+575
1106NATALIAnnie0:55:0428832843-40
935TESTOUDPhilippe0:55:5233112802-509
4126DUCOSElisabeth0:55:5330502801-249
11317BARNIERJ-Claude0:57:5034842707-777
17696JASPARDMichel0:57:5831652700-465
19275DAVIGNONFlavien0:59:1327892643-146
21313REINENMelanie0:59:25N/A2634N/A
3619LAGOIDETColette0:59:3825942625+31
14169LEAUPhilippe0:59:5825532610+57
14270BRANGERJoelle1:00:0922192602+383
11369GUIGNARDM-Christine1:01:3731302540-590
4234DRAULTJ-Raymond1:01:46N/A2534N/A
5804BREMAUDVeronique1:03:5620082448+440
640GAZAVEMartine1:06:4320932346+253
1706PENALVARoger1:06:51N/A2342N/A
10101FREDERIQUEMaria1:09:3626832249-434
647LARMINACHGenevieve1:10:0023512236-115
11135JOUBERTFloryan1:10:1321512229+78
16634BAUDOINAnnie1:10:1727782227-551
12688POUCHATJonathan1:10:3217642219+455
15894LUDEWIG-JAMESCarol1:12:2823832160-223
96CABONMonique1:12:4319292153+224
10485DODIEROrianne1:14:5719862088+102
20533TRESSOLLudivine1:18:50N/A1986N/A
8998HARDELElisabeth1:19:4422671963-304
6826DUVOUXFrance1:25:0126791841-838
19484DE MARCHIAnthony1:26:1418541815-39
18967VOLPATOAugustin1:26:4117401806+66
10010SIMONDenise1:27:1510951794+699
17606REBOURSXavier1:34:4311431653+510
14632ALLANCONClaudine1:37:2415491607+58
15314BOURRINETMarianne1:46:0817871475-312
11299JAOUENIsabelleN/A36970-3697
20590CRESPINAlineN/AN/A0N/A
934TESTOUDMadeleineN/A20440-2044

  Indice de confiance du circuit (moyenne des différences entre CN et score sur la course des 3 à 10 premiers) : 79






 Retour